Torna al catalogo

CZ-4 DEB

AttivoSSO
NORAD 20892·DEBRIS·🇨🇳 China

Lanciato Sep 3, 1990 da Taiyuan Satellite Launch Center

Loading…

Prossimi Passaggi (prossime 24 ore)

TLE

AggiornatoSource: Space-Track

Epoca: Sep 13, 2026, 11:26 UTC

1 20892U 90081BC  26256.47655715  .00000551  00000-0  48587-3 0  9996
2 20892  98.8995  87.9455 0160162  94.1822 296.9879 13.83434131802855

Traccia CZ-4 DEB in tempo reale con AllMySat

Download on the App Store